| time (UTC) | temp F | wind direction | speed knots | gust knots | rain 1hr in | rain 24hr in | rain mn in | humidity % | barometer mb |
| 20260506211554 | 63 | 196 | 7.0 | 12.2 | 0.00 | 0.00 | 0.00 | 67 | 1007.1 |
| 20260506210055 | 58 | 59 | 0.9 | 2.6 | 0.00 | 0.00 | 0.00 | 73 | 1007.0 |
| 20260506204553 | 58 | 0 | 0.0 | 2.6 | 0.00 | 0.00 | 0.00 | 73 | 1006.9 |
| 20260506203056 | 59 | 95 | 0.0 | 0.0 | 0.00 | 0.00 | 0.00 | 73 | 1006.9 |
| 20260506201556 | 59 | 0 | 0.0 | 1.7 | 0.00 | 0.00 | 0.00 | 73 | 1006.8 |
| 20260506200051 | 60 | 124 | 0.9 | 1.7 | 0.00 | 0.00 | 0.00 | 72 | 1006.9 |
| 20260506194552 | 61 | 124 | 1.7 | 2.6 | 0.00 | 0.00 | 0.00 | 71 | 1007.0 |
| 20260506193054 | 61 | 0 | 0.0 | 0.0 | 0.00 | 0.00 | 0.00 | 70 | 1006.9 |
| 20260506191632 | 62 | 0 | 0.0 | 0.0 | 0.00 | 0.00 | 0.00 | 69 | 1006.8 |
| 20260506190054 | 63 | 0 | 0.0 | 1.7 | 0.00 | 0.00 | 0.00 | 67 | 1006.7 |
| 20260506184553 | 65 | 133 | 0.9 | 1.7 | 0.00 | 0.00 | 0.00 | 63 | 1006.6 |
| 20260506183049 | 68 | 0 | 0.0 | 0.9 | 0.00 | 0.00 | 0.00 | 59 | 1006.5 |
| 20260506181550 | 70 | 0 | 0.0 | 3.5 | 0.00 | 0.00 | 0.00 | 53 | 1006.5 |
| 20260506180051 | 71 | 171 | 0.9 | 3.5 | 0.00 | 0.00 | 0.00 | 52 | 1006.3 |
| 20260506174557 | 72 | 175 | 2.6 | 4.3 | 0.00 | 0.00 | 0.00 | 50 | 1006.3 |
| 20260506173123 | 72 | 185 | 1.7 | 3.5 | 0.00 | 0.00 | 0.00 | 50 | 1006.1 |
| 20260506171610 | 73 | 205 | 2.6 | 5.2 | 0.00 | 0.00 | 0.00 | 49 | 1006.1 |
| 20260506170049 | 74 | 222 | 3.5 | 7.0 | 0.00 | 0.00 | 0.00 | 47 | 1006.0 |
| 20260506164556 | 75 | 223 | 4.3 | 7.8 | 0.00 | 0.00 | 0.00 | 46 | 1006.0 |
| 20260506163106 | 74 | 242 | 4.3 | 11.3 | 0.00 | 0.00 | 0.00 | 47 | 1005.9 |
| 20260506161612 | 74 | 237 | 4.3 | 12.2 | 0.00 | 0.00 | 0.00 | 48 | 1005.9 |
| 20260506160108 | 74 | 220 | 3.5 | 8.7 | 0.00 | 0.00 | 0.00 | 48 | 1005.9 |
| 20260506154554 | 75 | 235 | 3.5 | 9.6 | 0.00 | 0.00 | 0.00 | 47 | 1005.9 |
| 20260506153056 | 74 | 253 | 7.8 | 12.2 | 0.00 | 0.00 | 0.00 | 45 | 1006.1 |
| 20260506151551 | 76 | 211 | 7.0 | 13.9 | 0.00 | 0.00 | 0.00 | 45 | 1006.1 |
| 20260506150052 | 76 | 264 | 7.8 | 14.8 | 0.00 | 0.00 | 0.00 | 44 | 1006.1 |
| 20260506144552 | 76 | 248 | 9.6 | 13.9 | 0.00 | 0.00 | 0.00 | 45 | 1006.1 |
| 20260506143050 | 75 | 213 | 7.8 | 17.4 | 0.00 | 0.00 | 0.00 | 46 | 1006.2 |
| 20260506141556 | 76 | 259 | 7.0 | 16.5 | 0.00 | 0.00 | 0.00 | 45 | 1006.0 |
| 20260506140100 | 75 | 275 | 7.8 | 14.8 | 0.00 | 0.00 | 0.00 | 48 | 1006.0 |
| 20260506134558 | 76 | 268 | 7.0 | 17.4 | 0.00 | 0.00 | 0.00 | 46 | 1005.9 |
| 20260506133049 | 75 | 225 | 9.6 | 19.1 | 0.00 | 0.00 | 0.00 | 47 | 1005.9 |
| 20260506131601 | 75 | 238 | 10.4 | 19.1 | 0.00 | 0.00 | 0.00 | 46 | 1005.9 |
| 20260506130112 | 74 | 181 | 8.7 | 19.1 | 0.00 | 0.00 | 0.00 | 48 | 1005.9 |
| 20260506124558 | 74 | 221 | 8.7 | 18.2 | 0.00 | 0.00 | 0.00 | 48 | 1006.0 |
| 20260506123051 | 75 | 221 | 8.7 | 15.6 | 0.00 | 0.00 | 0.00 | 47 | 1005.9 |
| 20260506121550 | 75 | 209 | 8.7 | 14.8 | 0.00 | 0.00 | 0.00 | 46 | 1006.0 |
| 20260506120049 | 75 | 226 | 8.7 | 16.5 | 0.00 | 0.00 | 0.00 | 45 | 1006.0 |
| 20260506114550 | 76 | 269 | 7.8 | 16.5 | 0.00 | 0.00 | 0.00 | 43 | 1005.8 |
| 20260506113056 | 76 | 173 | 8.7 | 18.2 | 0.00 | 0.00 | 0.00 | 42 | 1005.7 |
| 20260506111552 | 75 | 211 | 8.7 | 18.2 | 0.00 | 0.00 | 0.00 | 44 | 1005.6 |
| 20260506110056 | 76 | 258 | 7.8 | 20.0 | 0.00 | 0.00 | 0.00 | 42 | 1005.6 |
| 20260506104556 | 76 | 163 | 7.8 | 19.1 | 0.00 | 0.00 | 0.00 | 42 | 1005.6 |
| 20260506103057 | 76 | 215 | 10.4 | 15.6 | 0.00 | 0.00 | 0.00 | 42 | 1005.8 |
| 20260506101600 | 75 | 244 | 7.8 | 14.8 | 0.00 | 0.00 | 0.00 | 43 | 1005.9 |
| 20260506100114 | 74 | 254 | 7.8 | 13.9 | 0.00 | 0.00 | 0.00 | 41 | 1005.8 |
| 20260506094553 | 74 | 201 | 5.2 | 13.9 | 0.00 | 0.00 | 0.00 | 43 | 1006.0 |
| 20260506093053 | 73 | 204 | 6.1 | 15.6 | 0.00 | 0.00 | 0.00 | 42 | 1006.1 |
| 20260506091551 | 73 | 196 | 7.0 | 13.9 | 0.00 | 0.00 | 0.00 | 41 | 1006.2 |
| 20260506090107 | 73 | 167 | 6.1 | 9.6 | 0.00 | 0.00 | 0.00 | 42 | 1006.0 |
| 20260506084621 | 72 | 177 | 6.1 | 13.0 | 0.00 | 0.00 | 0.00 | 41 | 1006.0 |
| 20260506083051 | 72 | 213 | 7.0 | 11.3 | 0.00 | 0.00 | 0.00 | 42 | 1005.9 |
| 20260506081557 | 71 | 203 | 6.1 | 11.3 | 0.00 | 0.00 | 0.00 | 44 | 1006.1 |
| 20260506073056 | 69 | 242 | 6.1 | 9.6 | 0.00 | 0.00 | 0.00 | 47 | 1006.3 |
| 20260506071552 | 68 | 209 | 5.2 | 10.4 | 0.00 | 0.00 | 0.00 | 47 | 1006.0 |
| 20260506061551 | 67 | 158 | 5.2 | 9.6 | 0.00 | 0.00 | 0.00 | 48 | 1006.3 |
| 20260506044704 | 60 | 171 | 0.9 | 4.3 | 0.00 | 0.00 | 0.00 | 60 | 1006.7 |
| 20260506043050 | 58 | 111 | 0.0 | 3.5 | 0.00 | 0.00 | 0.00 | 63 | 1006.8 |
| 20260506041602 | 56 | 126 | 0.9 | 5.2 | 0.00 | 0.00 | 0.00 | 65 | 1007.0 |
| 20260506040050 | 54 | 146 | 1.7 | 6.1 | 0.00 | 0.00 | 0.00 | 69 | 1006.9 |
| 20260506034624 | 51 | 0 | 0.0 | 1.7 | 0.00 | 0.00 | 0.00 | 72 | 1006.7 |
| 20260506033049 | 51 | 135 | 0.9 | 2.6 | 0.00 | 0.00 | 0.00 | 72 | 1006.6 |
| 20260506031553 | 50 | 108 | 0.9 | 2.6 | 0.00 | 0.00 | 0.00 | 73 | 1006.6 |
| 20260506030053 | 50 | 108 | 1.7 | 2.6 | 0.00 | 0.00 | 0.00 | 72 | 1006.8 |
| 20260506024552 | 51 | 108 | 0.9 | 2.6 | 0.00 | 0.00 | 0.00 | 72 | 1006.8 |
| 20260506023111 | 51 | 120 | 1.7 | 3.5 | 0.00 | 0.00 | 0.00 | 72 | 1006.8 |
| 20260506021552 | 51 | 132 | 0.9 | 2.6 | 0.00 | 0.00 | 0.00 | 72 | 1006.9 |
| 20260506020056 | 52 | 132 | 0.9 | 2.6 | 0.00 | 0.00 | 0.00 | 71 | 1006.9 |
| 20260506014555 | 53 | 132 | 0.0 | 2.6 | 0.00 | 0.00 | 0.00 | 68 | 1007.1 |
| 20260506013053 | 52 | 116 | 1.7 | 3.5 | 0.00 | 0.00 | 0.00 | 69 | 1007.0 |
| 20260506011608 | 52 | 71 | 1.7 | 2.6 | 0.00 | 0.00 | 0.00 | 70 | 1006.8 |
| 20260506010100 | 53 | 71 | 1.7 | 2.6 | 0.00 | 0.00 | 0.00 | 68 | 1006.8 |
| 20260506004624 | 55 | 146 | 0.9 | 2.6 | 0.00 | 0.00 | 0.00 | 63 | 1007.0 |
| 20260506003104 | 56 | 0 | 0.9 | 2.6 | 0.00 | 0.00 | 0.00 | 61 | 1006.8 |
| 20260506001555 | 57 | 199 | 1.7 | 2.6 | 0.00 | 0.00 | 0.00 | 59 | 1007.0 |
| 20260506000058 | 58 | 0 | 0.0 | 0.0 | 0.00 | 0.00 | 0.00 | 58 | 1007.0 |
| 20260505234617 | 58 | 0 | 0.0 | 0.0 | 0.00 | 0.00 | 0.00 | 58 | 1006.9 |
| 20260505233051 | 59 | 274 | 0.0 | 2.6 | 0.00 | 0.00 | 0.00 | 57 | 1006.8 |
| 20260505231556 | 58 | 34 | 0.9 | 2.6 | 0.00 | 0.00 | 0.00 | 58 | 1006.7 |
| 20260505230051 | 60 | 83 | 0.9 | 1.7 | 0.00 | 0.00 | 0.00 | 55 | 1006.6 |
| 20260505224550 | 62 | 0 | 0.0 | 2.6 | 0.00 | 0.00 | 0.00 | 51 | 1006.6 |
| 20260505223048 | 64 | 157 | 2.6 | 6.1 | 0.00 | 0.00 | 0.00 | 48 | 1006.6 |
| 20260505221551 | 65 | 160 | 6.1 | 10.4 | 0.00 | 0.00 | 0.00 | 47 | 1006.6 |
| 20260505220105 | 65 | 151 | 5.2 | 10.4 | 0.00 | 0.00 | 0.00 | 46 | 1006.8 |
| 20260505214602 | 65 | 136 | 5.2 | 9.6 | 0.00 | 0.00 | 0.00 | 46 | 1006.7 |
| 20260505213101 | 66 | 162 | 6.1 | 9.6 | 0.00 | 0.00 | 0.00 | 45 | 1006.7 |